EW9853 Weather Reports


time (UTC)temp
C
wind
direction
speed
KPH
gust
KPH
rain 1hr
cm
rain 24hr
cm
rain mn
cm
humidity
%
barometer
mb
20260906121529 20 49 1.6 9.7 0.00 0.00 0.00 92 1016.2
20260906120026 20 42 0.0 8.0 0.00 0.00 0.00 93 1016.0
20260906114526 20 53 0.0 8.0 0.00 0.00 0.00 94 1015.7
20260906113022 20 42 0.0 8.0 0.00 0.00 0.00 94 1015.4
20260906111521 20 50 4.8 9.7 0.00 0.00 0.00 94 1015.3
20260906110020 20 43 3.2 8.0 0.00 0.00 0.00 94 1015.2
20260906104522 20 44 1.6 6.4 0.00 0.00 0.00 93 1014.9
20260906103015 20 72 0.0 8.0 0.00 0.00 0.00 93 1014.7
20260906101526 20 74 1.6 8.0 0.00 0.00 0.00 92 1014.8
20260906100012 20 75 1.6 9.7 0.00 0.00 0.00 92 1014.8
20260906094511 20 40 4.8 11.3 0.00 0.00 0.00 92 1014.5
20260906093011 20 26 3.2 8.0 0.00 0.00 0.00 92 1014.6
20260906091508 20 347 1.6 9.7 0.00 0.00 0.00 92 1014.5
20260906090008 20 60 1.6 11.3 0.00 0.00 0.00 91 1014.4
20260906084505 21 32 1.6 9.7 0.00 0.00 0.00 91 1014.4
20260906083004 21 64 3.2 11.3 0.00 0.00 0.00 90 1014.3
20260906081502 21 50 0.0 9.7 0.00 0.00 0.00 90 1014.4
20260906080001 21 103 1.6 8.0 0.00 0.00 0.00 89 1014.6
20260906074602 21 51 0.0 6.4 0.00 0.00 0.00 89 1014.6
20260906073059 21 61 3.2 8.0 0.00 0.00 0.00 88 1014.7
20260906071558 21 44 3.2 9.7 0.00 0.00 0.00 88 1014.6
20260906070057 22 56 1.6 8.0 0.00 0.00 0.00 87 1014.8
20260906064555 22 47 3.2 8.0 0.00 0.00 0.00 87 1014.7
20260906063054 22 58 0.0 8.0 0.00 0.00 0.00 87 1014.7
20260906061557 22 65 0.0 9.7 0.00 0.00 0.00 86 1014.7
20260906060051 22 11 3.2 12.9 0.00 0.00 0.00 86 1014.6
20260906054557 22 48 3.2 14.5 0.00 0.00 0.00 86 1014.5
20260906053053 22 51 4.8 11.3 0.00 0.00 0.00 86 1014.4
20260906051546 22 52 3.2 12.9 0.00 0.00 0.00 86 1014.4
20260906050105 22 47 3.2 11.3 0.00 0.00 0.00 85 1014.3
20260906044542 22 70 3.2 11.3 0.00 0.00 0.00 85 1014.1
20260906043040 22 59 3.2 14.5 0.00 0.00 0.00 84 1013.9
20260906041540 22 44 4.8 14.5 0.00 0.00 0.00 84 1013.7
20260906040042 22 59 6.4 16.1 0.00 0.00 0.00 83 1013.5
20260906034543 22 69 4.8 11.3 0.00 0.00 0.00 83 1013.5
20260906033039 22 92 4.8 19.3 0.00 0.00 0.00 83 1013.3
20260906031535 22 92 4.8 16.1 0.00 0.00 0.00 83 1013.4
20260906030038 22 146 9.7 19.3 0.00 0.00 0.00 83 1013.4
20260906024533 22 48 9.7 20.9 0.00 0.00 0.00 83 1013.3
20260906023031 22 77 8.0 17.7 0.00 0.00 0.00 83 1013.4
20260906021530 22 108 9.7 22.5 0.00 0.00 0.00 84 1013.4
20260906020032 22 75 9.7 20.9 0.00 0.00 0.00 83 1013.3
20260906014535 22 73 8.0 25.7 0.00 0.00 0.00 84 1013.3
20260906013029 22 53 12.9 25.7 0.00 0.00 0.00 83 1013.2
20260906011523 22 49 6.4 17.7 0.00 0.00 0.00 83 1013.2
20260906010020 22 53 8.0 22.5 0.00 0.00 0.00 82 1013.3
20260906004519 22 11 9.7 22.5 0.00 0.00 0.00 84 1013.2
20260906003016 22 37 8.0 17.7 0.00 0.00 0.00 83 1013.0
20260906001513 23 70 8.0 25.7 0.00 0.00 0.00 82 1012.8
20260906000009 23 78 12.9 29.0 0.00 0.00 0.00 79 1012.4
20260905234505 25 53 9.7 20.9 0.00 0.00 0.00 77 1012.3
20260905233012 26 360 11.3 22.5 0.00 0.00 0.00 75 1012.3
20260905231502 26 59 9.7 20.9 0.00 0.00 0.00 74 1012.1
20260905230002 27 41 11.3 24.1 0.00 0.00 0.00 71 1011.9
20260905224501 27 76 9.7 19.3 0.00 0.00 0.00 70 1011.7
20260905223100 28 72 6.4 19.3 0.00 0.00 0.00 66 1011.5
20260905221601 28 53 6.4 17.7 0.00 0.00 0.00 67 1011.4
20260905220059 28 103 6.4 22.5 0.00 0.00 0.00 67 1011.4
20260905214558 27 60 6.4 12.9 0.00 0.00 0.00 69 1011.7
20260905213057 27 94 9.7 16.1 0.00 0.00 0.00 71 1011.6
20260905211602 27 61 4.8 17.7 0.00 0.00 0.00 71 1011.6
20260905210058 27 39 8.0 17.7 0.00 0.00 0.00 74 1011.7
20260905204556 26 43 9.7 24.1 0.00 0.00 0.00 75 1011.9
20260905203100 26 37 9.7 22.5 0.00 0.00 0.00 74 1012.0
20260905201555 27 56 6.4 20.9 0.00 0.00 0.00 74 1011.9
20260905200104 27 63 4.8 20.9 0.00 0.00 0.00 73 1011.9
20260905194554 28 92 4.8 24.1 0.00 0.00 0.00 71 1011.8
20260905193108 28 47 9.7 29.0 0.00 0.00 0.00 70 1011.7
20260905191554 28 37 9.7 20.9 0.00 0.00 0.00 70 1011.8
20260905190052 28 44 8.0 20.9 0.00 0.00 0.00 70 1011.8
20260905184551 28 179 9.7 24.1 0.00 0.00 0.00 70 1011.8
20260905183055 28 89 6.4 19.3 0.00 0.00 0.00 70 1011.9
20260905181550 28 37 4.8 17.7 0.00 0.00 0.00 70 1011.9
20260905180050 28 111 8.0 16.1 0.00 0.00 0.00 70 1011.8
20260905174550 29 95 8.0 19.3 0.00 0.00 0.00 69 1011.8
20260905173048 29 50 8.0 16.1 0.00 0.00 0.00 70 1011.8
20260905171551 30 38 4.8 16.1 0.00 0.00 0.00 68 1011.8
20260905170045 29 66 4.8 16.1 0.00 0.00 0.00 70 1011.9
20260905164544 29 34 8.0 16.1 0.00 0.00 0.00 70 1012.0
20260905163041 28 23 3.2 14.5 0.00 0.00 0.00 72 1012.1
20260905161540 28 72 4.8 17.7 0.00 0.00 0.00 75 1012.1
20260905160039 28 33 4.8 11.3 0.00 0.00 0.00 73 1012.0
20260905154546 27 119 6.4 19.3 0.00 0.00 0.00 75 1012.0
20260905153036 27 63 3.2 12.9 0.00 0.00 0.00 76 1011.9
20260905151534 27 88 3.2 16.1 0.00 0.00 0.00 78 1011.8
20260905150036 26 37 8.0 24.1 0.00 0.00 0.00 80 1011.6
20260905144531 26 34 8.0 20.9 0.00 0.00 0.00 82 1011.4
20260905143030 25 65 8.0 14.5 0.00 0.00 0.00 84 1011.5
20260905141528 25 45 6.4 16.1 0.00 0.00 0.00 85 1011.5
20260905140027 26 61 6.4 16.1 0.00 0.00 0.00 83 1011.2
20260905134540 25 25 8.0 16.1 0.00 0.00 0.00 85 1011.2
20260905133026 25 17 8.0 16.1 0.00 0.00 0.00 85 1011.3
20260905131526 26 60 4.8 11.3 0.00 0.00 0.00 85 1011.5
20260905130022 25 56 1.6 12.9 0.00 0.00 0.00 86 1010.9
20260905124521 25 58 4.8 11.3 0.00 0.00 0.00 87 1010.6
20260905123016 25 44 0.0 12.9 0.00 0.00 0.00 89 1010.4